RH
40 32 21 24 27 30 31 34 34 37 39 41 43 41 40 39 31 29 27 28 28 29 31 32 34 35 34 33 31 31 30 30 30 29 28 28 26 26 28 31 33 38 41
43 38 24 26 30 31 32 32 33 39 41 42 45 41 40 38 34 32 31 31 31 32 33 35 35 36 36 36 37 36 34 32 33 32 30 29 31 49 35 30 33 40 44
47 42 31 33 34 34 35 34 36 39 45 47 48 48 41 38 32 33 34 33 34 34 34 35 35 34 33 33 34 36 37 35 35 34 32 32 37 59 46 32 33 37 42
48 42 37 39 42 42 41 39 40 43 50 55 56 57 48 42 35 36 37 36 36 36 36 37 38 38 38 36 36 37 37 35 36 36 35 38 54 66 49 42 34 38 41
53 46 45 47 48 49 46 44 46 50 55 60 61 59 55 46 39 38 39 38 37 37 37 38 38 38 38 37 37 38 39 39 39 38 37 43 54 45 42 45 39 37 44
55 53 52 52 51 51 50 49 51 55 61 67 70 64 51 47 43 40 41 38 36 36 36 35 36 36 35 34 33 32 39 42 43 43 41 46 58 61 43 37 37 36 38
59 60 59 57 54 52 54 55 54 59 63 73 76 64 52 47 44 40 38 35 32 30 30 28 27 27 26 25 25 24 25 33 41 45 47 46 52 63 49 43 35 34 35
60 60 60 58 55 55 58 59 60 64 75 77 78 65 57 49 39 37 33 29 26 25 25 25 24 23 22 20 19 19 14 12 20 33 45 52 56 55 64 56 45 37 35
56 57 58 57 58 62 66 66 68 74 77 74 78 59 45 41 36 34 31 28 27 26 26 26 24 23 22 19 19 19 19 14 10 10 15 38 52 56 61 68 60 44 38
59 60 59 62 62 63 63 69 78 81 81 80 61 48 43 43 39 35 32 29 27 26 26 26 24 22 20 20 19 18 18 19 13 12 14 26 35 48 65 74 75 66 53
57 61 60 59 61 61 62 70 72 74 69 68 54 48 44 40 40 39 35 33 31 30 28 25 23 21 20 20 19 19 18 19 20 17 17 21 27 27 32 51 72 83 74
55 56 59 59 60 58 58 59 59 58 54 52 47 42 44 43 45 41 38 33 31 28 24 22 21 20 19 19 19 18 17 17 18 19 18 17 17 20 21 24 29 50 77
53 52 53 55 56 54 54 53 55 53 47 45 42 44 46 47 43 38 34 30 26 23 23 21 20 19 18 17 16 16 17 17 17 17 20 19 18 18 18 18 18 20 28
50 51 51 53 52 52 49 49 50 47 45 45 46 48 45 39 34 31 28 25 23 22 20 18 18 17 16 16 15 15 14 14 15 17 19 20 19 18 17 17 17 15 17
48 48 47 49 49 46 46 46 45 44 45 47 45 39 33 31 29 26 25 24 22 21 21 20 20 20 20 20 20 19 18 18 17 16 16 19 22 21 18 18 17 16 14
46 47 48 49 43 43 43 42 42 43 41 35 30 28 28 26 26 26 25 24 24 24 24 25 25 24 23 22 22 20 20 20 21 23 23 21 21 23 24 22 20 21 19
41 46 46 45 40 39 39 40 39 35 31 27 27 27 27 27 28 28 28 29 29 28 27 27 26 26 26 25 23 21 21 23 23 24 28 26 27 27 26 27 27 25 24
40 46 44 39 37 37 38 37 34 31 30 29 29 29 28 28 29 32 32 32 32 32 30 29 29 29 27 25 24 24 26 27 30 33 33 29 30 32 32 34 36 36 30
42 45 43 43 40 39 37 36 34 33 32 32 31 30 30 31 32 34 34 35 36 35 32 31 30 29 28 26 25 25 28 31 32 29 31 35 34 34 34 33 36 36 36
44 49 48 46 42 40 39 37 36 36 36 34 32 32 34 35 37 38 40 40 39 37 35 33 32 31 31 26 25 26 29 29 32 32 36 33 34 35 36 35 36 36 38
50 55 54 51 47 44 44 43 42 42 40 37 37 38 39 41 42 43 45 43 40 39 36 34 31 30 31 25 24 26 34 33 33 32 31 33 33 33 33 36 38 39 39
53 57 56 55 50 49 49 50 48 47 46 43 43 44 46 47 49 48 44 44 43 41 37 34 32 29 31 24 22 24 27 37 34 32 33 33 33 35 36 38 41 43 42
56 61 61 59 55 52 50 49 48 46 46 49 52 52 51 50 48 48 49 49 45 40 37 34 29 26 27 24 23 23 26 29 28 31 35 35 36 40 42 45 44 45 46
55 60 58 59 57 56 53 52 51 52 54 56 55 51 50 52 56 54 54 49 44 40 35 31 27 25 24 24 24 27 30 30 32 34 36 39 43 46 49 51 52 50 50
50 52 53 55 56 55 54 54 54 54 54 52 55 57 60 57 56 55 51 47 42 38 34 31 28 26 24 23 23 24 28 31 32 32 35 39 44 49 53 54 56 57 58
47 51 54 55 57 55 54 55 57 59 59 61 58 54 50 51 51 52 49 46 41 36 33 31 29 26 25 22 22 20 23 26 29 31 33 37 43 48 53 56 58 61 63